This is the latest recevied weather packets stored in our database for station/object XQ6AK-15. If no packets are shown the sender has not sent any weather packets the latest 10 day(s).
| Time | Temp. | Humidity | Pressure | Rain* | Wind** | Luminosity | Snow |
|---|---|---|---|---|---|---|---|
| 1788036198 | 12.22° C | 83% | 1009.7 hPa | 0 mm | - | 60 W/m² | - |
| 1788035898 | 12.22° C | 82% | 1009.9 hPa | 0 mm | - | 134 W/m² | - |
| 1788035598 | 12.22° C | 83% | 1009.9 hPa | 0 mm | - | 203 W/m² | - |
| 1788035293 | 12.22° C | 84% | 1009.6 hPa | 0 mm | - | 178 W/m² | - |
| 1788034989 | 12.78° C | 84% | 1009.6 hPa | 0 mm | - | 229 W/m² | - |
| 1788034685 | 12.22° C | 89% | 1009.7 hPa | 0 mm | - | 201 W/m² | - |
| 1788034380 | 12.22° C | 87% | 1009.6 hPa | 0 mm | - | 258 W/m² | - |
| 1788034075 | 12.22° C | 93% | 1009.5 hPa | 1.78 mm | - | 234 W/m² | - |
| 1788033769 | 12.22° C | 95% | 1009.5 hPa | 1.78 mm | - | 337 W/m² | - |
| 1788033468 | 11.67° C | 97% | 1009.2 hPa | 0 mm | - | 293 W/m² | - |
| 1788033163 | 11.11° C | 95% | 1009.4 hPa | 0 mm | - | 89 W/m² | - |
| 1788032859 | 11.11° C | 96% | 1009.3 hPa | 0 mm | - | 81 W/m² | - |
| 1788032558 | 11.67° C | 96% | 1009.3 hPa | 0 mm | - | 153 W/m² | - |
| 1788032254 | 11.11° C | 98% | 1009.3 hPa | 0 mm | - | 345 W/m² | - |
| 1788031950 | 10.56° C | 99% | 1009.3 hPa | 0 mm | - | 275 W/m² | - |
| 1788031644 | 10.56° C | 99% | 1009.2 hPa | 0 mm | - | 251 W/m² | - |
| 1788031339 | 10° C | 99% | 1009 hPa | 0 mm | - | 163 W/m² | - |
| 1788031038 | 10° C | 99% | 1009 hPa | 0 mm | - | 140 W/m² | - |
| 1788030733 | 10° C | 99% | 1008.8 hPa | 0 mm | - | 177 W/m² | - |
| 1788030432 | 10° C | 99% | 1008.9 hPa | 0 mm | - | 156 W/m² | - |
| 1788030128 | 10° C | 99% | 1008.9 hPa | 0 mm | - | 159 W/m² | - |
| 1788029827 | 9.44° C | 99% | 1008.8 hPa | 0 mm | - | 508 W/m² | - |
| 1788029522 | 9.44° C | 99% | 1008.9 hPa | 0 mm | - | 134 W/m² | - |
| 1788029216 | 9.44° C | 99% | 1008.7 hPa | 0 mm | - | 243 W/m² | - |
| 1788028910 | 8.89° C | 99% | 1008.7 hPa | 0 mm | - | 202 W/m² | - |
* Rain latest hour (hover to see other rain measurements)
** Current wind speed in m/s (hover to see current wind gust speed)